Domov               UVHVVR             MKGP            O straneh              
ZDRAVSTVENO VARSTVO RASTLIN
  MREŽA AGROMET. POSTAJ
 ► PROGNOSTIČNA OBVESTILA
AGROMETEOROLOŠKI PODATKI -
ARSO
OBVLADOVANJE TVEGANJ ZARADI
NEUGODNIH VREMENSKIH RAZMER
  ► NARAVNE NESREČE
  ► SUŠA/MOČA
  ► NAMAKANJE
  ► ŽLED (gozdarstvo)
KARTOGRAFSKI PRIKAZI
SPLETNE POVEZAVE
PROJEKTI IN PUBLIKACIJE

AGROMETEOROLOŠKA MREŽA: VREMENSKE POSTAJE IN FENOLOŠKA OPAZOVANJA

Pregled podatkov za lokacijo Purisima, meteorološka postaja 24241

Pregled senzorjev na lokaciji

ID Ime Zadnja
vrednost
Datum
zadnje
spremembe
Tip
senzorja
1001 Temperatura 2 m ( °C) 23,81 °C 17.8.2017 05:30 50YA
1002 Relativna vlaga 2 m (% RH) 54,43 % RH 17.8.2017 05:30 50YA
1472 Padavine (mm) 0 mm 17.8.2017 05:30 Rain-O-Matic
3142 Temperatura tal ( °C) 25,54 °C 17.8.2017 05:30 99TG411E

Pregled podatkov zadnjih 24 ur

Zap.
št.
Datum in čas Purisima
Padavine Relativna
vlaga
2
m
Temperatura
2
m
Temperatura
tal
0 17.8.2017 04:30 0 54,43 23,81 25,54
1 17.8.2017 04:00 0 54,41 24,03 25,58
2 17.8.2017 03:30 0 53,82 24,2 25,63
3 17.8.2017 03:00 0 53,16 24,44 25,67
4 17.8.2017 02:30 0 52,28 24,47 25,74
5 17.8.2017 02:00 0 53,82 24,62 25,8
6 17.8.2017 01:30 0 51,99 25,06 25,83
7 17.8.2017 01:00 0 50,99 25,2 25,89
8 17.8.2017 00:30 0 49,99 25,42 25,95
9 17.8.2017 00:00 0 50,09 25,54 25,99
10 16.8.2017 23:30 0 48,65 25,91 26,02
11 16.8.2017 23:00 0 47,79 26,01 26,11
12 16.8.2017 22:30 0 47,99 25,45 26,14
13 16.8.2017 22:00 0 47,47 26,37 26,18
14 16.8.2017 21:30 0 43,57 26,98 26,21
15 16.8.2017 21:00 0 45,23 26,47 26,24
16 16.8.2017 20:30 0 49,33 26,13 26,26
17 16.8.2017 20:00 0 48,45 26,37 26,27
18 16.8.2017 19:30 0 41,73 27,64 26,26
19 16.8.2017 19:00 0 39,37 28,79 26,21
20 16.8.2017 18:30 0 38,12 29,99 26,2
21 16.8.2017 18:00 0 41,05 30,97 26,14
22 16.8.2017 17:30 0 40,02 31,99 26,07
23 16.8.2017 17:00 0 39,68 32,6 25,99
24 16.8.2017 16:30 0 36,8 32,94 25,91
25 16.8.2017 16:00 0 42,13 32,7 25,8
26 16.8.2017 15:30 0 42,78 32,28 25,71
27 16.8.2017 15:00 0 48,45 31,7 25,6
28 16.8.2017 14:30 0 45,64 31,55 25,45
29 16.8.2017 14:00 0 48,16 30,43 25,35
30 16.8.2017 13:30 0 46,2 30,16 25,19
31 16.8.2017 13:00 0 39,27 32,63 24,92
32 16.8.2017 12:30 0 34,21 32,85 24,73
33 16.8.2017 12:00 0 40,34 32,7 24,59
34 16.8.2017 11:30 0 45,13 31,72 24,51
35 16.8.2017 11:00 0 46,81 30,99 24,45
36 16.8.2017 10:30 0 48,62 31,75 24,4
37 16.8.2017 10:00 0 45,2 30,53 24,38
38 16.8.2017 09:30 0 46,69 29,18 24,43
39 16.8.2017 09:00 0 46,91 27,99 24,44
40 16.8.2017 08:30 0 52,58 26,33 24,54
41 16.8.2017 08:00 0 58,63 25,03 24,59
© 2011 Ministrstvo za kmetijstvo, gozdarstvo in prehrano. Vse pravice pridržane.